Angel Fire, NM

9:10 PM MST on January 18, 2018 (GMT -0700)
Angel Fire

Weather History for KAXX - April, 2013

Change the Weather History Date:

Monday, April 22, 2013

  Actual Average (KSKX) Record (KSKX)
Temperature  
Mean Temperature 42 °F -  
Max Temperature 61 °F 59 °F 77 °F (2012)
Min Temperature 23 °F 27 °F 19 °F (2002)
Degree Days  
Heating Degree Days 23    
Moisture  
Dew Point 14 °F    
Average Humidity 30    
Maximum Humidity 67    
Minimum Humidity 15    
Precipitation  
Precipitation 0.00 in - - ()
Sea Level Pressure  
Sea Level Pressure 30.06 in    
Wind  
Wind Speed 10 mph (WSW)    
Max Wind Speed 30 mph    
Max Gust Speed 44 mph    
Visibility 10 miles    
Events      
Averages and records for this station are not official NWS values.
T = Trace of Precipitation, MM = Missing Value Source: NWS Daily Summary

Daily Weather History Graph

Daily Weather History Graph

Search for Another Location

Airport or City:

Trip Planner

Search our weather history database for the weather conditions in past years. The results will help you decide how hot, cold, wet, or windy it might be!

Date:

Astronomy

Apr. 22, 2013 Rise Set
Actual Time 6:18 AM MDT 7:41 PM MDT
Civil Twilight 5:51 AM MDT 8:08 PM MDT
Nautical Twilight 5:18 AM MDT 8:41 PM MDT
Astronomical Twilight 4:44 AM MDT 9:15 PM MDT
Moon 4:38 PM MDT (4/22) 4:08 AM MDT (4/22)
Length of Visible Light 14h 17m
Length of Day
13h 23m
Waxing Gibbous, 88% of the Moon is Illuminated
Apr 22
Waxing Gibbous
Apr 25
Full
May 2
Last Quarter
May 9
New
May 17
First Quarter

Hourly Weather History & Observations

Time (MDT) Temp. Windchill Dew Point Humidity Pressure Visibility Wind Dir Wind Speed Gust Speed Precip Events Conditions
12:15 AM 39.4 °F 34.5 °F 8.8 °F 28% 30.16 in 10.0 mi West 6.9 mph - N/A   Clear
12:35 AM 32.5 °F - 8.1 °F 36% 30.15 in 10.0 mi Calm Calm - N/A   Clear
12:55 AM 33.4 °F - 8.6 °F 35% 30.13 in 10.0 mi Calm Calm - N/A   Mostly Cloudy
1:15 AM 32.7 °F - 9.5 °F 38% 30.13 in 10.0 mi Calm Calm - N/A   Mostly Cloudy
1:35 AM 31.8 °F 23.9 °F 10.4 °F 41% 30.12 in 10.0 mi West 9.2 mph - N/A   Scattered Clouds
1:55 AM 37.8 °F 31.3 °F 10.4 °F 32% 30.11 in 10.0 mi WSW 9.2 mph - N/A   Clear
2:15 AM 35.8 °F 28.8 °F 10.4 °F 35% 30.11 in 10.0 mi WSW 9.2 mph - N/A   Clear
2:35 AM 37.4 °F 30.8 °F 10.8 °F 33% 30.11 in 10.0 mi West 9.2 mph - N/A   Clear
2:55 AM 38.8 °F 32.6 °F 10.8 °F 32% 30.10 in 10.0 mi West 9.2 mph - N/A   Clear
3:15 AM 33.6 °F 27.5 °F 11.1 °F 39% 30.10 in 10.0 mi WSW 6.9 mph - N/A   Clear
3:35 AM 32.7 °F - 12.0 °F 42% 30.10 in 10.0 mi Calm Calm - N/A   Clear
3:55 AM 32.2 °F - 11.5 °F 42% 30.09 in 10.0 mi Calm Calm - N/A   Clear
4:15 AM 30.6 °F - 11.7 °F 45% 30.09 in 10.0 mi Calm Calm - N/A   Clear
4:35 AM 30.7 °F - 11.8 °F 46% 30.09 in 10.0 mi Calm Calm - N/A   Clear
4:55 AM 28.8 °F 23.7 °F 12.0 °F 50% 30.09 in 10.0 mi South 4.6 mph - N/A   Clear
5:15 AM 27.9 °F - 12.7 °F 53% 30.09 in 10.0 mi Calm Calm - N/A   Clear
5:35 AM 23.9 °F - 12.7 °F 62% 30.09 in 10.0 mi Calm Calm - N/A   Clear
5:55 AM 25.5 °F - 12.6 °F 58% 30.09 in 10.0 mi Calm Calm - N/A   Clear
6:15 AM 24.6 °F - 12.9 °F 61% 30.09 in 10.0 mi Calm Calm - N/A   Clear
6:35 AM 25.9 °F 20.3 °F 13.6 °F 60% 30.09 in 10.0 mi SW 4.6 mph - N/A   Clear
6:55 AM 37.9 °F 30.5 °F 14.9 °F 39% 30.09 in 10.0 mi SW 11.5 mph 16.1 mph N/A   Clear
7:15 AM 42.6 °F 36.3 °F 14.7 °F 32% 30.10 in 10.0 mi SW 11.5 mph - N/A   Clear
7:35 AM 44.4 °F 39.0 °F 14.9 °F 30% 30.10 in 10.0 mi SW 10.4 mph - N/A   Clear
7:55 AM 45.9 °F 38.8 °F 14.9 °F 29% 30.09 in 10.0 mi SW 17.3 mph 23.0 mph N/A   Clear
8:15 AM 46.9 °F - 15.1 °F 28% 30.10 in 10.0 mi SW 12.7 mph 23.0 mph N/A   Clear
8:35 AM 47.8 °F - 15.3 °F 27% 30.10 in 10.0 mi SSW 17.3 mph 25.3 mph N/A   Clear
8:55 AM 49.1 °F - 15.6 °F 26% 30.09 in 10.0 mi WSW 17.3 mph 24.2 mph N/A   Clear
9:15 AM 49.6 °F - 15.8 °F 26% 30.10 in 10.0 mi West 11.5 mph 24.2 mph N/A   Clear
9:35 AM 50.0 °F - 16.0 °F 26% 30.10 in 10.0 mi West 10.4 mph 25.3 mph N/A   Clear
9:55 AM 51.1 °F - 15.8 °F 25% 30.10 in 10.0 mi SW 20.7 mph 28.8 mph N/A   Clear
10:15 AM 52.0 °F - 15.8 °F 24% 30.10 in 10.0 mi WSW 17.3 mph 29.9 mph N/A   Clear
10:35 AM 52.9 °F - 15.8 °F 23% 30.10 in 10.0 mi WSW 16.1 mph 34.5 mph N/A   Clear
10:55 AM 54.3 °F - 16.3 °F 22% 30.10 in 10.0 mi West 18.4 mph 26.5 mph N/A   Clear
11:15 AM 54.3 °F - 15.3 °F 21% 30.10 in 10.0 mi West 19.6 mph 34.5 mph N/A   Clear
11:35 AM 56.1 °F - 16.5 °F 21% 30.09 in 10.0 mi West 23.0 mph 33.4 mph N/A   Clear
11:55 AM 56.5 °F - 16.2 °F 21% 30.08 in 10.0 mi SW 20.7 mph 29.9 mph N/A   Clear
12:15 PM 56.7 °F - 15.3 °F 20% 30.07 in 10.0 mi West 13.8 mph 38.0 mph N/A   Clear
12:35 PM 59.0 °F - 14.7 °F 18% 30.07 in 10.0 mi West 27.6 mph 38.0 mph N/A   Clear
12:55 PM 59.5 °F - 15.3 °F 18% 30.05 in 10.0 mi West 25.3 mph 43.7 mph N/A   Clear
1:15 PM 60.1 °F - 13.6 °F 16% 30.04 in 10.0 mi West 29.9 mph 39.1 mph N/A   Clear
1:35 PM 60.1 °F - 13.3 °F 16% 30.03 in 10.0 mi West 23.0 mph 39.1 mph N/A   Scattered Clouds
1:55 PM 61.3 °F - 12.9 °F 15% 30.03 in 10.0 mi WSW 26.5 mph 41.4 mph N/A   Clear
2:15 PM 61.3 °F - 13.1 °F 15% 30.04 in 10.0 mi WSW 26.5 mph 41.4 mph N/A   Scattered Clouds
2:35 PM 61.9 °F - 13.3 °F 15% 30.03 in 10.0 mi SW 23.0 mph 38.0 mph N/A   Scattered Clouds
2:55 PM 59.5 °F - 12.4 °F 16% 30.02 in 10.0 mi West 16.1 mph 32.2 mph N/A   Scattered Clouds
3:15 PM 61.2 °F - 12.2 °F 15% 30.01 in 10.0 mi West 24.2 mph 42.6 mph N/A   Mostly Cloudy
3:35 PM 60.8 °F - 11.8 °F 15% 30.01 in 10.0 mi WSW 18.4 mph 41.4 mph N/A   Mostly Cloudy
3:55 PM 59.9 °F - 11.5 °F 15% 30.01 in 10.0 mi WSW 25.3 mph 31.1 mph N/A   Mostly Cloudy
4:15 PM 59.7 °F - 11.7 °F 15% 30.00 in 10.0 mi WSW 23.0 mph 32.2 mph N/A   Mostly Cloudy
4:35 PM 59.4 °F - 10.6 °F 15% 30.00 in 10.0 mi West 21.9 mph 33.4 mph N/A   Mostly Cloudy
4:55 PM 58.8 °F - 10.8 °F 15% 30.00 in 10.0 mi West 16.1 mph 25.3 mph N/A   Overcast
5:15 PM 58.3 °F - 10.8 °F 15% 29.99 in 10.0 mi West 15.0 mph 26.5 mph N/A   Overcast
5:35 PM 58.3 °F - 10.6 °F 15% 29.99 in 10.0 mi West 12.7 mph 19.6 mph N/A   Mostly Cloudy
5:55 PM 58.5 °F - 10.9 °F 15% 29.99 in 10.0 mi SW 9.2 mph - N/A   Mostly Cloudy
6:15 PM 58.5 °F - 10.4 °F 15% 29.99 in 10.0 mi West 16.1 mph 23.0 mph N/A   Mostly Cloudy
6:35 PM 58.1 °F - 10.8 °F 15% 29.99 in 10.0 mi SW 16.1 mph 26.5 mph N/A   Mostly Cloudy
6:55 PM 58.1 °F - 10.8 °F 15% 29.99 in 10.0 mi SW 12.7 mph 18.4 mph N/A   Mostly Cloudy
7:15 PM 58.1 °F - 10.8 °F 15% 29.98 in 10.0 mi SW 12.7 mph 18.4 mph N/A   Overcast
7:35 PM 56.8 °F - 11.7 °F 17% 29.98 in 10.0 mi WSW 13.8 mph 18.4 mph N/A   Overcast
7:55 PM 55.9 °F - 12.4 °F 18% 29.98 in 10.0 mi WSW 11.5 mph 19.6 mph N/A   Mostly Cloudy
8:15 PM 55.2 °F - 12.9 °F 19% 29.99 in 10.0 mi SW 9.2 mph - N/A   Mostly Cloudy
8:35 PM 54.5 °F - 12.9 °F 19% 29.99 in 10.0 mi WSW 11.5 mph 18.4 mph N/A   Scattered Clouds
8:55 PM 54.3 °F - 13.3 °F 20% 29.99 in 10.0 mi SW 11.5 mph 18.4 mph N/A   Scattered Clouds
9:15 PM 54.7 °F - 13.3 °F 19% 29.99 in 10.0 mi SW 10.4 mph 21.9 mph N/A   Mostly Cloudy
9:35 PM 49.1 °F - 22.8 °F 36% 30.00 in 10.0 mi NE 11.5 mph 17.3 mph N/A   Mostly Cloudy
9:55 PM 44.1 °F 40.8 °F 24.1 °F 45% 30.01 in 10.0 mi SW 5.8 mph - N/A   Overcast
10:15 PM 44.1 °F 36.2 °F 25.0 °F 47% 30.01 in 10.0 mi South 18.4 mph 21.9 mph N/A   Overcast
10:35 PM 43.0 °F 37.2 °F 26.1 °F 51% 30.01 in 10.0 mi SSE 10.4 mph - N/A   Overcast
10:55 PM 40.5 °F 38.4 °F 26.8 °F 58% 30.01 in 10.0 mi NE 3.5 mph - N/A   Overcast
11:15 PM 41.0 °F 37.1 °F 27.0 °F 57% 30.00 in 10.0 mi NE 5.8 mph - N/A   Overcast
11:35 PM 37.8 °F 31.8 °F 27.5 °F 67% 30.00 in 10.0 mi NNE 8.1 mph - N/A   Overcast
11:55 PM 37.4 °F 31.4 °F 27.5 °F 67% 30.00 in 10.0 mi NE 8.1 mph - N/A   Overcast